Main page
METAR-TAF:

METAR-TAF

Airports :

Tulln an der Donau, Austria

Military airbase

latitude: 48-19N, longitude: 016-07E, elevation: 175 m

METAR: missing

Time: 09:31 (07:31 UTC)

Forecast

The report was made 2 hours and 16 minutes ago, at 05:15 UTC
Forecast valid from 24 at 06 UTC to 24 at 15 UTC
Wind 12 kt from the West
Visibility 10 km or more
Broken clouds at a height of 5000 ft

TAF: LOXT 240515Z 2406/2415 28012KT 9999 BKN050

Weather observations and forecasts of more than 4000 airports (METAR and TAF reports).

The available stations are represented by yellow and red dots on the map.

Hover mouse over dot to see the name of the station.

Then click to see weather observations and forecasts.

To change the map : click on the green buttons with a black cross to zoom in, on the green button with a dash to zoom out, or on the green arrows for adjacent maps.


METAR-TAF: